Regional Weather Roundup
Issued by NWS

Home | Current Version | Previous Version | Text Only | Print | Product List | Glossary Off
Versions: 1 2 3 4 5 6 7 8 9 10 11 12 13 14 15 16 17 18 19 20 21 22 23 24 25 26 27 28 29 30 31 32 33 34 35 36 37 38 39 40 41 42 43 44 45 46 47 48 49 50

196
ASUS45 KBOI 210910
RWRID

IDAHO REGIONAL WEATHER ROUNDUP
NATIONAL WEATHER SERVICE BOISE ID
300 AM MDT FRI JUL 21 2017

NOTE: "FAIR" INDICATES FEW OR NO CLOUDS BELOW 12000 FEET
WITH NO SIGNIFICANT WEATHER AND/OR OBSTRUCTIONS TO VISIBILITY

IDZ012-014-211000-
SOUTHWEST IDAHO


CITY           SKY/WX    TMP DP  RH WIND       PRES   REMARKS
BOISE          CLEAR     63  46  54 S5        30.00R
CALDWELL       CLEAR     67  45  45 W14       29.99R
MOUNTAIN HOME  CLEAR     66  37  34 NW8       30.00R
$$

IDZ016-017-211000-
SOUTHCENTRAL IDAHO


CITY           SKY/WX    TMP DP  RH WIND       PRES   REMARKS
BURLEY         PTCLDY    58  45  62 SW5       30.04S
JEROME         CLEAR     59  42  53 E7        30.05S
TWIN FALLS     CLEAR     69  36  29 S15       30.06S
$$

IDZ019>023-211000-
SOUTHEAST IDAHO


CITY           SKY/WX    TMP DP  RH WIND       PRES   REMARKS
IDAHO FALLS    CLOUDY    57  44  62 SW7       30.08R
POCATELLO      CLOUDY    72  37  28 SW10      30.07S
REXBURG        CLEAR     63  39  41 S9        30.07S
$$

IDZ006-010-011-018-031-032-211000-
CENTRAL IDAHO MOUNTAINS


CITY           SKY/WX    TMP DP  RH WIND       PRES   REMARKS
MCCALL         CLEAR     58  38  47 N3        30.13S
HAILEY         CLEAR     55  32  41 NW12      30.15S
STANLEY          N/A     41  29  62 S6        30.25S
SALMON         NOT AVBL
CHALLIS        CLEAR     57  34  41 N5        30.13R
$$

IDZ002-004-006-007-026-211000-
NORTHERN IDAHO


CITY           SKY/WX    TMP DP  RH WIND       PRES   REMARKS
LEWISTON       CLEAR     62  36  37 S7        30.04S
LOWELL           N/A     57  46  66 NW3       30.09R
COEUR D`ALENE  CLEAR     60  47  61 S8        30.04F
MULLAN PASS    CLEAR     50  36  58 W8        30.17S
$$




USA.gov is the U.S. government's official web portal to all federal, state and local government web resources and services.